Temperature
19 19 19 19 19 20 20 20 20 20 20 19 19 19 19 19 19 19 19 19 19 18 18 18 18 18 18 18 18 18 18 18 18 18 17 17 17 17 17 17 17 17 17
20 19 19 19 20 20 20 20 20 20 20 20 19 19 19 19 19 19 19 19 18 18 18 18 18 18 18 18 18 18 18 18 17 17 17 17 17 17 17 17 17 17 17
20 20 19 20 20 20 20 20 20 20 20 20 19 19 19 19 19 19 19 18 18 18 18 18 18 18 18 18 18 18 18 18 17 17 17 17 17 17 17 17 17 17 17
21 20 20 20 20 20 20 20 20 20 20 20 19 19 19 19 19 19 19 18 18 18 18 18 18 18 18 18 18 18 17 17 17 17 17 17 17 17 17 17 17 17 17
21 20 20 20 20 20 20 20 20 20 20 20 19 19 19 19 19 19 19 18 18 18 18 18 18 18 18 18 18 17 17 17 17 17 17 17 17 17 17 17 17 17 17
21 20 20 20 20 20 20 20 20 20 20 19 19 19 19 19 19 19 19 18 18 18 18 18 18 18 17 17 17 17 17 17 17 17 17 17 17 17 17 17 17 17 17
21 20 20 20 20 20 20 20 20 20 20 19 19 19 19 19 19 19 18 18 18 18 18 18 18 18 17 17 17 17 17 17 18 18 18 17 17 17 17 17 17 17 17
21 20 20 20 20 20 20 20 20 20 20 19 19 19 19 19 19 18 18 18 18 18 18 18 17 17 17 17 17 17 17 18 18 17 17 17 17 17 17 17 17 17 17
20 20 20 20 20 20 20 20 20 19 19 19 19 19 19 19 18 18 18 18 18 18 18 18 17 17 17 17 17 17 17 17 17 17 17 17 17 17 17 17 17 17 17
20 20 20 20 20 20 20 19 19 19 19 19 19 19 18 18 18 18 18 18 18 18 18 17 17 17 17 17 17 17 17 17 17 17 17 17 17 17 17 17 17 17 17
19 19 19 20 20 20 19 19 19 19 19 19 19 18 18 18 18 18 18 18 18 18 17 17 17 17 17 17 17 17 17 17 17 17 17 17 17 17 17 17 17 17 17
19 19 19 19 19 19 19 19 19 19 19 19 18 18 18 18 18 18 18 18 18 17 17 17 17 17 17 17 17 17 17 17 17 17 17 17 17 17 17 17 17 17 17
19 19 19 19 19 19 19 19 19 19 19 18 18 18 18 18 18 18 18 18 17 17 17 17 17 17 17 17 17 17 17 17 17 17 17 17 17 17 17 17 17 17 17
19 19 19 19 19 19 19 19 19 19 18 18 18 18 18 18 18 18 18 18 17 17 17 17 17 17 17 17 17 17 17 17 17 17 17 17 17 17 17 17 17 17 17
19 19 19 19 19 19 19 19 19 18 18 18 18 18 18 18 18 18 18 17 17 17 17 17 17 17 17 17 17 17 17 17 17 17 17 17 17 17 17 17 17 16 16
19 19 19 19 19 19 19 19 19 18 18 18 18 18 18 18 18 17 17 17 17 17 17 17 17 17 17 17 17 17 17 17 17 17 17 17 17 17 17 17 16 16 16
19 19 19 19 19 19 19 18 18 18 18 18 18 18 18 18 17 17 17 17 17 17 17 17 17 17 17 17 16 17 17 17 17 17 17 17 17 16 16 16 16 16 16
19 18 18 18 18 18 18 18 18 18 18 18 18 18 17 17 17 17 17 17 17 17 16 16 16 16 16 16 16 16 16 16 16 16 16 16 16 16 16 16 16 16 16
19 18 18 18 18 18 18 18 18 18 18 18 17 17 17 17 17 17 17 17 16 16 16 16 16 16 16 16 16 16 16 16 16 16 16 16 16 16 16 16 16 16 16
18 18 18 18 18 18 18 17 17 17 18 17 17 17 17 17 17 17 17 16 16 16 16 16 16 16 16 16 16 16 16 16 16 16 16 16 16 16 16 16 16 16 16
18 17 17 17 18 18 17 17 17 17 17 17 17 17 17 17 17 17 16 16 16 16 16 16 16 16 16 16 16 16 16 16 16 16 16 16 16 16 16 16 16 16 16
17 17 17 17 17 17 17 17 17 18 17 17 17 17 17 17 17 16 16 16 16 16 16 16 16 15 16 15 16 16 16 16 16 16 16 16 16 16 16 16 16 16 15
17 17 17 17 17 17 17 17 17 17 17 17 17 17 17 16 16 16 16 16 16 16 16 15 15 15 15 15 16 16 16 16 16 16 16 16 16 16 16 16 16 15 15
17 17 17 17 17 17 17 17 17 17 17 17 17 17 17 16 16 16 16 16 16 16 15 15 15 15 15 15 15 16 16 16 16 16 16 16 16 16 16 16 15 15 15
18 17 17 17 17 17 17 17 17 17 17 17 17 17 16 16 16 16 16 16 16 15 15 15 15 15 15 15 15 15 16 16 16 16 16 15 16 16 15 15 15 15 15
17 17 17 17 17 17 17 17 17 17 17 17 17 17 16 16 16 16 16 16 15 15 15 15 15 15 15 15 15 15 15 15 15 16 15 15 15 15 15 15 15 15 15
Wind_Speed
9 13 19 19 19 19 20 20 20 20 20 20 20 20 19 18 17 16 15 15 14 13 13 14 14 14 15 15 15 15 16 16 16 16 17 17 17 17 17 17 17 16 18
14 17 21 20 20 20 20 20 20 20 20 19 19 19 18 18 17 16 15 14 14 14 14 14 14 14 15 15 15 15 15 15 16 16 16 16 16 16 16 16 16 15 17
17 18 20 21 20 20 20 19 19 19 19 18 18 18 17 17 16 15 15 14 14 14 14 14 14 14 15 15 15 15 15 15 15 15 15 13 14 15 15 16 16 16 16
17 18 19 21 21 20 19 19 19 18 18 18 17 17 16 16 15 15 14 14 14 14 14 14 14 14 14 14 14 14 14 14 15 14 12 12 12 14 15 15 15 15 15
14 17 20 23 21 20 20 19 18 18 17 17 16 16 15 15 15 14 14 14 14 14 14 14 14 14 13 13 13 12 13 13 14 12 10 10 12 14 15 15 14 14 14
13 16 20 23 22 20 20 19 18 17 17 16 16 15 14 14 14 14 13 13 13 13 13 13 13 12 12 11 11 11 11 12 12 10 10 10 11 14 14 14 14 13 13
13 14 20 23 22 21 20 19 18 17 16 16 15 14 14 13 13 13 13 13 13 13 12 12 12 11 10 10 9 9 11 12 11 10 10 10 11 14 14 13 13 13 13
14 12 18 22 22 21 20 19 18 17 16 15 15 14 13 13 12 12 12 12 11 11 11 11 10 10 9 8 8 9 11 11 11 10 9 9 11 13 13 13 13 13 12
11 11 12 17 19 20 19 19 18 17 16 15 14 14 13 12 11 11 10 10 10 10 10 10 9 9 8 7 7 9 10 11 10 9 9 8 11 12 12 12 12 12 12
10 10 9 12 14 15 17 18 18 17 16 15 14 14 13 12 11 10 9 9 9 9 8 8 7 7 6 6 6 8 9 10 9 8 7 9 11 12 12 12 12 11 11
11 9 8 8 11 13 14 17 17 17 16 15 13 14 12 10 9 9 8 8 8 8 7 6 6 5 5 5 5 7 8 8 8 7 7 9 11 11 11 11 11 11 11
15 12 9 9 8 11 12 12 12 12 13 12 11 11 9 8 8 7 7 7 7 6 6 5 4 4 4 4 4 5 5 7 7 6 7 10 11 11 11 11 11 11 10
15 14 12 10 8 8 6 8 8 8 9 10 10 10 9 7 6 5 4 4 4 5 3 3 3 3 3 3 3 3 4 5 6 6 7 10 11 11 12 11 11 11 11
14 14 13 11 9 7 7 7 7 6 7 7 9 10 8 5 4 4 3 3 3 3 3 3 3 3 3 3 3 3 3 4 5 5 7 9 11 11 11 12 11 11 11
12 12 12 12 10 8 6 6 7 6 6 7 8 9 9 6 4 4 3 3 3 4 3 3 3 3 3 3 2 2 2 3 4 5 5 8 10 11 11 11 11 11 11
12 11 10 11 10 8 7 6 5 6 7 7 7 9 10 8 6 4 4 3 3 4 4 4 3 2 2 2 1 1 1 2 3 4 4 5 8 10 11 11 11 11 11
11 10 10 10 9 9 8 7 6 7 7 6 7 9 10 9 8 6 4 3 3 5 5 5 4 3 2 2 1 1 0 0 2 3 4 4 5 7 10 10 11 11 11
10 10 11 11 10 9 7 6 5 7 7 6 7 8 9 10 9 7 4 3 5 6 5 4 3 2 2 1 1 1 1 1 1 2 2 4 4 5 7 9 10 11 11
11 12 11 10 10 9 7 6 5 6 6 7 7 8 8 9 10 8 5 5 7 5 4 3 2 2 1 1 1 1 1 1 1 1 1 2 3 4 5 7 8 9 9
9 10 10 9 9 9 7 5 4 4 4 5 6 7 9 9 10 9 6 6 7 4 3 3 3 3 2 1 2 2 2 2 1 1 1 1 2 3 4 4 5 6 7
7 8 9 9 9 8 6 6 6 5 4 4 4 7 9 10 11 9 6 6 6 4 4 4 3 3 2 1 2 3 3 3 3 2 2 1 1 1 1 2 3 4 4
9 9 8 9 9 8 7 5 4 4 4 3 3 6 8 10 11 9 8 6 5 5 5 4 3 3 2 2 2 2 2 3 3 3 3 2 2 2 1 0 2 2 2
10 10 10 10 10 9 8 5 5 4 3 3 4 4 6 10 11 10 10 7 6 5 5 4 4 4 3 1 1 3 3 3 1 2 3 3 3 2 2 1 0 1 1
10 11 10 10 10 9 10 9 10 7 6 5 5 5 5 8 9 10 10 9 6 5 5 4 4 3 4 2 1 2 1 2 3 1 2 2 3 3 2 2 1 1 0
8 9 10 10 10 10 10 10 10 7 5 4 4 6 5 4 7 9 10 8 6 5 5 5 4 4 3 3 3 2 2 2 2 2 1 2 2 2 2 2 1 1 1
7 8 9 10 9 9 10 10 10 10 9 8 7 7 5 4 4 6 8 7 7 5 6 5 5 5 3 3 3 2 3 2 2 2 2 0 1 2 2 2 1 1 1
Wind_Direction
158 158 153 145 137 131 126 124 122 122 122 122 124 125 126 126 126 125 123 121 118 115 112 110 110 110 110 109 109 110 111 112 114 115 115 114 113 112 112 111 109 109 110
150 156 155 148 142 136 131 128 127 126 125 125 126 126 127 127 126 125 124 122 120 117 114 113 113 112 112 112 112 113 115 116 117 117 117 117 116 115 114 114 113 116 113
147 154 155 151 145 140 135 132 131 129 128 127 128 128 128 128 128 127 125 124 121 119 117 115 115 115 115 115 116 116 117 117 119 119 116 116 119 118 119 118 118 118 116
148 152 155 152 147 143 140 137 135 134 132 131 131 130 130 131 130 129 127 125 123 120 119 118 119 119 118 118 119 120 121 120 120 117 114 119 123 123 122 120 120 120 119
147 151 157 154 151 147 144 142 140 138 136 135 134 133 133 133 132 130 128 125 123 123 123 121 121 119 119 120 121 125 126 125 123 117 116 118 123 129 126 124 123 122 121
146 151 159 156 154 151 149 146 144 143 141 139 138 137 137 135 134 132 131 128 125 125 123 121 121 121 120 121 124 130 134 131 123 122 121 123 128 133 131 129 127 125 124
148 154 161 158 157 155 153 151 150 148 147 145 144 143 142 140 139 138 135 130 129 128 125 123 122 122 121 120 123 131 138 136 131 131 130 132 136 136 135 132 132 130 129
153 154 161 161 160 158 157 156 155 153 152 151 149 149 148 146 144 142 139 136 133 132 130 127 124 119 116 113 114 124 136 138 141 141 139 140 143 140 139 137 136 135 133
152 153 158 162 162 162 162 161 160 158 158 157 155 153 153 151 148 147 143 141 138 135 133 131 128 121 115 112 114 126 136 139 140 144 149 150 151 148 146 144 141 140 139
154 158 156 157 159 161 164 166 165 163 163 162 161 159 159 158 156 155 151 149 145 142 139 136 130 123 115 110 115 130 137 136 142 147 150 160 161 158 154 152 150 147 146
164 160 156 155 155 157 162 170 169 168 168 167 167 166 162 159 158 159 162 161 154 151 147 141 131 122 112 103 108 125 130 141 148 152 162 171 171 168 164 161 159 158 156
173 170 163 163 158 158 167 168 166 166 168 167 168 164 157 156 162 165 174 173 168 164 156 146 138 113 99 93 96 115 133 153 159 165 179 183 181 177 174 172 171 170 168
174 173 171 168 163 161 160 157 156 156 159 162 166 160 157 157 162 165 170 174 168 162 141 126 106 98 103 109 114 129 146 160 168 177 187 193 190 189 185 182 182 181 179
175 179 173 170 166 163 158 159 157 156 159 164 170 167 161 158 163 166 163 160 145 140 126 107 100 102 104 115 128 135 147 161 177 186 198 204 202 199 194 191 192 192 191
178 179 176 171 171 168 158 163 167 164 167 172 172 177 175 170 171 174 163 154 148 144 135 123 112 103 99 97 108 132 143 159 181 197 211 213 212 210 204 199 200 202 201
181 182 180 178 174 168 168 167 166 164 166 171 177 185 184 179 173 164 157 151 152 154 149 139 128 111 96 100 94 129 147 161 184 205 219 227 223 217 213 207 208 211 211
182 180 181 181 175 175 175 172 167 165 166 172 181 184 182 178 172 164 155 151 154 151 137 118 102 90 90 91 75 56 77 171 195 219 226 238 245 232 225 220 218 218 219
175 177 184 188 180 180 176 166 160 166 166 172 174 174 175 173 168 158 149 150 148 138 128 115 99 87 73 73 68 31 36 16 290 258 246 249 251 243 235 232 229 227 226
176 176 182 183 176 174 165 161 159 159 163 164 164 166 170 167 164 154 149 147 143 130 124 125 95 99 89 61 50 47 29 23 330 299 278 264 252 242 243 247 244 242 238
174 174 176 173 170 161 153 150 147 147 154 154 159 163 164 164 160 148 141 139 139 127 118 107 105 80 80 73 61 49 26 19 33 32 339 311 276 254 249 250 255 258 252
168 169 173 171 168 159 156 163 164 169 164 159 162 159 161 160 157 148 142 136 139 138 139 132 114 97 64 57 81 41 20 28 46 35 20 16 354 312 261 238 240 243 252
175 173 173 174 173 173 170 166 166 155 153 153 149 153 161 161 159 156 146 146 145 133 131 137 132 119 76 57 120 105 48 14 10 23 24 33 18 13 18 290 219 224 235
182 180 181 183 184 178 165 149 134 112 104 127 148 160 167 166 162 156 155 152 151 147 151 154 148 140 136 70 67 136 143 187 315 353 15 28 26 35 15 17 74 210 226
191 185 183 181 182 175 167 167 165 170 173 177 166 162 159 165 161 159 159 157 155 151 154 161 152 144 140 141 93 61 102 144 142 82 349 4 22 34 15 10 19 13 320
186 182 181 178 180 175 174 175 174 172 165 145 143 148 151 155 161 163 162 158 156 158 162 154 147 147 146 151 153 139 104 76 87 136 146 341 359 7 10 357 352 355 357
177 178 177 177 180 176 173 172 175 170 160 155 162 164 160 157 158 163 163 162 164 165 166 162 157 153 150 145 149 153 153 149 153 141 151 185 317 325 340 344 350 323 302
Height
1510 1513 1517 1519 1522 1524 1525 1527 1528 1529 1531 1532 1533 1535 1536 1537 1538 1539 1540 1542 1543 1544 1545 1546 1547 1548 1549 1550 1551 1551 1552 1553 1554 1555 1556 1557 1559 1560 1561 1562 1563 1564 1565
1507 1512 1516 1520 1522 1524 1526 1528 1529 1531 1532 1534 1535 1536 1537 1539 1540 1541 1542 1543 1544 1546 1547 1548 1549 1550 1550 1551 1552 1553 1554 1555 1556 1558 1559 1560 1561 1562 1563 1564 1565 1566 1567
1507 1512 1516 1520 1523 1525 1527 1529 1531 1532 1534 1535 1537 1538 1539 1540 1542 1543 1544 1545 1546 1547 1548 1549 1550 1551 1552 1553 1554 1555 1556 1558 1559 1560 1561 1562 1563 1564 1565 1567 1568 1569 1570
1507 1512 1516 1520 1523 1526 1528 1530 1532 1533 1535 1537 1538 1539 1541 1542 1543 1545 1546 1547 1548 1549 1550 1551 1552 1553 1554 1555 1556 1558 1559 1560 1561 1562 1563 1564 1565 1566 1568 1569 1570 1571 1572
1508 1512 1516 1520 1523 1526 1529 1531 1533 1535 1536 1538 1540 1541 1542 1544 1545 1546 1548 1549 1550 1551 1552 1553 1554 1555 1556 1558 1559 1560 1561 1562 1563 1564 1565 1566 1567 1568 1570 1571 1572 1573 1574
1509 1513 1517 1521 1524 1527 1529 1532 1534 1536 1538 1539 1541 1543 1544 1545 1547 1548 1549 1550 1551 1553 1554 1555 1556 1557 1559 1560 1561 1562 1563 1564 1565 1566 1567 1568 1569 1570 1571 1573 1574 1575 1576
1509 1513 1517 1521 1524 1527 1530 1532 1534 1537 1539 1540 1542 1544 1546 1547 1548 1550 1551 1552 1553 1554 1556 1557 1558 1560 1561 1562 1563 1564 1565 1566 1567 1568 1569 1570 1571 1572 1573 1574 1575 1577 1578
1510 1514 1518 1521 1525 1528 1530 1533 1535 1537 1540 1542 1543 1545 1547 1549 1550 1551 1553 1554 1555 1556 1557 1559 1560 1562 1563 1564 1565 1566 1567 1568 1569 1570 1570 1572 1573 1574 1575 1576 1577 1578 1579
1511 1514 1518 1521 1525 1528 1531 1533 1536 1538 1540 1542 1544 1546 1548 1550 1551 1553 1554 1555 1557 1558 1559 1560 1562 1563 1565 1566 1567 1568 1569 1569 1570 1571 1572 1573 1574 1575 1576 1577 1578 1580 1580
1511 1514 1518 1521 1524 1528 1531 1534 1536 1539 1541 1543 1545 1547 1549 1551 1553 1554 1556 1557 1558 1559 1561 1562 1563 1565 1566 1567 1568 1569 1570 1571 1572 1573 1573 1574 1575 1576 1578 1579 1580 1581 1582
1510 1514 1517 1521 1524 1528 1531 1534 1537 1539 1541 1544 1546 1548 1550 1552 1553 1555 1557 1558 1560 1561 1562 1563 1564 1566 1567 1568 1569 1570 1571 1572 1573 1574 1574 1575 1576 1577 1578 1580 1581 1582 1583
1507 1512 1516 1520 1524 1527 1530 1533 1536 1539 1541 1544 1546 1548 1550 1552 1554 1556 1557 1559 1560 1562 1563 1564 1565 1567 1568 1569 1570 1571 1572 1573 1574 1575 1575 1576 1577 1578 1579 1580 1581 1582 1583
1505 1510 1514 1519 1523 1527 1530 1533 1536 1539 1541 1544 1546 1548 1551 1553 1554 1556 1557 1559 1561 1562 1563 1565 1566 1567 1568 1570 1571 1572 1573 1574 1574 1575 1576 1577 1578 1578 1580 1581 1582 1583 1584
1503 1508 1512 1517 1522 1526 1529 1532 1535 1538 1541 1544 1546 1549 1551 1553 1554 1556 1558 1559 1561 1562 1564 1565 1566 1567 1569 1570 1571 1572 1573 1574 1575 1576 1576 1577 1578 1579 1580 1581 1582 1583 1584
1503 1506 1511 1516 1520 1524 1528 1532 1535 1538 1541 1544 1546 1548 1551 1553 1555 1556 1558 1559 1561 1562 1564 1565 1566 1567 1568 1569 1571 1572 1573 1574 1575 1575 1576 1577 1577 1578 1579 1580 1581 1582 1584
1502 1505 1510 1515 1519 1523 1527 1531 1534 1537 1540 1543 1546 1548 1551 1553 1555 1556 1558 1559 1561 1562 1564 1565 1566 1567 1568 1569 1570 1571 1572 1573 1574 1575 1576 1577 1577 1578 1579 1580 1581 1582 1583
1501 1505 1508 1513 1517 1521 1526 1530 1533 1536 1540 1543 1545 1548 1550 1552 1554 1556 1558 1559 1560 1562 1563 1564 1566 1567 1568 1568 1569 1570 1571 1572 1573 1574 1575 1576 1577 1578 1578 1579 1580 1581 1582
1499 1503 1506 1511 1515 1520 1524 1529 1532 1536 1539 1542 1545 1547 1549 1551 1554 1555 1557 1558 1560 1561 1563 1564 1565 1566 1567 1568 1569 1569 1570 1571 1572 1573 1574 1575 1576 1577 1578 1579 1579 1580 1581
1497 1500 1504 1509 1513 1517 1522 1527 1531 1535 1538 1541 1544 1546 1549 1551 1553 1555 1556 1558 1560 1561 1562 1563 1564 1566 1566 1567 1568 1568 1569 1570 1571 1572 1573 1574 1575 1576 1577 1578 1578 1579 1579
1495 1498 1502 1507 1511 1515 1520 1525 1530 1533 1537 1540 1543 1546 1548 1550 1552 1554 1555 1557 1559 1560 1562 1563 1564 1565 1566 1566 1567 1567 1568 1569 1570 1571 1572 1573 1574 1575 1576 1577 1577 1578 1578
1493 1496 1500 1504 1509 1514 1518 1523 1527 1531 1535 1539 1542 1544 1547 1549 1551 1553 1555 1556 1558 1560 1561 1562 1563 1564 1564 1565 1566 1567 1568 1569 1570 1571 1572 1573 1573 1574 1575 1576 1576 1577 1577
1491 1494 1498 1502 1507 1512 1516 1521 1525 1529 1533 1537 1540 1543 1546 1548 1550 1552 1554 1556 1557 1559 1560 1561 1562 1563 1563 1564 1565 1566 1567 1569 1569 1570 1571 1572 1573 1573 1574 1575 1575 1575 1576
1489 1492 1495 1500 1504 1509 1514 1519 1524 1528 1531 1534 1537 1541 1544 1546 1549 1551 1553 1555 1556 1558 1559 1560 1561 1562 1563 1564 1564 1566 1566 1567 1568 1569 1570 1571 1572 1572 1573 1574 1574 1574 1574
1485 1489 1493 1498 1502 1507 1511 1516 1520 1523 1527 1532 1535 1539 1542 1545 1547 1549 1551 1553 1555 1556 1557 1559 1560 1561 1562 1563 1563 1564 1565 1565 1567 1568 1569 1570 1571 1571 1572 1572 1573 1573 1573
1483 1487 1490 1495 1499 1504 1509 1514 1518 1522 1525 1530 1534 1537 1540 1543 1545 1548 1550 1552 1553 1555 1556 1557 1558 1559 1560 1561 1562 1563 1564 1564 1565 1566 1567 1569 1570 1570 1571 1571 1571 1572 1572
1482 1485 1489 1492 1497 1502 1506 1511 1515 1519 1523 1528 1531 1535 1538 1541 1544 1546 1548 1550 1552 1554 1555 1556 1557 1558 1558 1560 1561 1561 1562 1563 1564 1565 1566 1567 1568 1569 1569 1570 1570 1570 1570